Theta_e
314 314 314 313 314 314 314 314 313 313 313 311 311 311 311 311 312 314 316 321 331 331 331 330 331 333 334 334 340 337 344 349 351 352 352 357 361 357 355 355 355 352 352 351 353
315 314 313 313 313 314 313 313 313 313 312 311 311 312 311 311 313 320 320 322 323 327 328 328 328 331 333 335 336 338 343 346 345 348 355 360 359 357 358 358 355 353 351 352 352
314 314 314 313 312 312 313 313 313 313 313 311 311 312 311 312 322 319 329 327 322 321 327 327 330 334 335 334 337 340 343 342 345 348 356 360 359 353 357 358 353 354 353 351 350
311 312 313 313 313 312 313 313 314 313 313 311 311 312 311 320 320 329 329 329 329 324 324 329 333 335 337 336 334 344 342 341 345 349 357 360 358 355 357 355 352 352 351 350 349
310 310 312 313 313 313 313 313 314 314 313 311 311 312 315 317 319 321 326 327 328 327 328 330 335 335 337 335 335 342 344 342 345 348 353 357 360 361 358 353 353 352 351 351 348
313 310 309 311 313 314 313 313 314 314 312 311 311 312 323 314 318 326 323 323 329 328 330 331 336 334 335 335 336 339 345 343 345 349 354 361 361 359 357 353 355 354 353 351 348
315 315 312 310 312 313 314 313 314 313 311 311 312 314 322 310 319 322 320 320 323 327 330 333 334 335 334 334 334 341 346 345 346 349 358 357 359 362 356 353 355 354 352 351 350
317 316 315 311 311 313 314 313 314 312 311 312 312 315 310 314 317 318 321 322 324 325 329 332 333 334 332 333 334 338 341 349 347 350 355 344 358 359 354 354 355 354 353 353 351
317 317 317 316 313 312 315 314 314 313 313 312 316 318 318 318 320 320 321 321 324 325 328 331 332 331 331 333 333 333 342 342 349 349 350 347 355 358 354 353 355 354 353 352 351
315 316 317 317 315 313 315 314 315 317 318 318 319 316 315 318 320 321 321 322 321 323 328 329 327 331 327 331 337 339 337 337 349 347 348 350 350 358 355 354 354 353 350 352 351
315 315 316 317 317 314 315 314 313 314 316 315 310 312 314 317 319 320 321 320 321 324 328 328 331 332 332 331 333 334 335 337 340 344 347 348 350 358 354 353 352 350 347 346 350
315 315 316 317 317 314 317 311 314 315 314 314 315 315 316 317 318 318 319 319 321 323 328 329 331 331 333 333 334 333 335 337 338 342 344 343 348 355 353 352 351 347 347 349 348
316 315 315 317 316 318 315 317 319 319 314 314 314 316 317 317 318 318 315 317 324 324 328 329 331 331 334 333 334 332 334 335 338 343 341 345 348 354 352 350 348 348 348 349 349
316 315 313 316 316 313 317 318 318 318 312 315 317 317 319 318 318 317 316 318 321 326 325 327 327 331 330 332 332 333 333 334 338 342 344 341 346 350 347 349 349 353 351 349 352
315 314 312 312 315 313 317 317 319 314 313 317 317 319 317 316 317 318 319 322 321 324 325 328 326 327 329 330 331 332 332 334 337 333 328 334 345 346 342 346 352 353 353 351 350
313 311 311 313 313 317 317 318 316 316 316 321 318 319 318 317 318 315 319 319 321 324 323 323 323 325 324 326 327 329 331 328 326 326 329 333 341 343 345 347 349 353 353 348 348
311 311 311 311 316 316 316 313 316 320 317 319 318 317 314 314 317 316 317 317 318 320 321 321 323 323 325 325 324 328 325 330 332 331 331 331 336 346 341 342 346 356 353 343 342
311 312 316 317 317 315 317 314 322 318 320 319 320 317 316 314 315 314 314 313 315 319 318 322 324 324 325 324 324 324 327 330 334 332 333 339 343 349 344 347 348 350 347 343 342
312 315 315 318 316 315 312 316 314 317 320 320 318 316 314 314 315 313 312 311 312 316 318 319 322 322 325 325 328 327 331 327 326 328 338 343 348 349 351 353 351 350 348 348 345
311 313 315 318 318 316 314 316 317 317 319 318 320 320 319 320 315 312 311 313 314 316 316 319 322 322 323 324 325 330 328 335 329 337 349 350 350 344 356 357 352 351 350 349 347
313 314 319 320 319 314 317 315 318 317 318 318 320 319 318 321 315 311 314 315 315 317 317 316 319 323 323 323 323 321 328 325 327 334 346 351 349 342 352 355 353 352 348 345 354
309 317 319 318 315 311 316 316 317 318 318 317 317 317 318 320 323 312 313 315 316 317 319 317 316 321 321 320 321 324 326 327 330 332 340 340 342 342 346 349 348 350 345 349 349
308 311 319 318 321 317 316 319 318 319 318 318 318 318 318 319 323 322 318 317 316 317 318 316 315 320 322 318 323 329 329 326 328 331 343 340 341 342 343 349 348 350 345 347 346
310 323 321 316 313 319 322 323 323 321 323 318 317 317 317 322 321 324 326 326 322 317 334 323 313 318 321 319 330 336 332 330 328 332 337 342 345 347 347 349 347 343 343 345 346
309 317 320 327 324 325 325 324 329 329 325 320 320 318 320 322 322 323 324 322 323 327 323 317 318 321 321 321 334 336 334 331 331 330 337 339 344 346 345 346 347 349 351 347 347
314 317 315 319 321 329 328 332 335 338 335 325 320 323 321 320 321 322 324 323 324 321 321 315 322 334 337 335 336 337 334 332 333 336 340 341 344 340 341 343 344 349 351 347 347
309 310 315 320 324 327 331 333 336 335 335 332 335 336 329 323 324 319 319 321 324 324 320 318 330 329 334 336 335 337 338 335 338 337 339 340 338 338 343 346 344 347 351 347 345
Wind_Speed
18 18 19 19 19 19 19 18 17 14 14 14 15 17 19 24 25 17 6 9 1 4 8 11 0 6 5 4 5 4 4 1 3 4 3 10 7 4 6 10 1 4 5 16 25
19 19 20 19 19 19 19 18 18 15 13 13 15 16 18 24 22 15 20 15 14 10 7 8 6 7 4 2 2 4 3 6 5 6 6 8 12 8 4 5 7 11 17 22 22
20 20 21 22 22 21 21 21 20 17 14 13 13 16 20 17 5 8 7 5 13 17 9 8 6 1 3 3 2 4 5 4 1 6 13 13 10 5 12 2 9 16 14 14 18
22 22 22 22 22 20 21 21 20 17 15 13 13 15 16 5 4 2 8 8 4 10 6 3 3 6 3 5 4 4 3 4 5 9 9 9 8 8 3 5 14 15 17 13 14
22 22 23 23 22 21 21 22 20 17 15 13 11 13 5 3 9 8 10 12 5 5 6 2 3 1 4 6 4 3 7 2 5 9 9 14 12 5 7 12 13 13 13 13 11
23 24 24 24 24 23 22 23 20 17 13 11 10 10 3 4 3 3 8 12 6 1 2 6 3 3 3 5 1 2 4 7 6 8 9 12 10 5 8 14 13 14 15 14 12
24 24 25 24 25 24 23 23 19 15 11 9 8 6 1 15 3 10 15 12 10 8 3 7 5 2 4 6 5 10 6 3 3 5 5 16 0 7 14 16 16 16 14 13 14
25 25 26 26 26 25 25 23 17 10 7 6 7 2 7 7 16 18 15 15 8 4 12 18 8 4 4 2 6 8 5 3 4 5 10 3 3 7 16 18 16 15 13 13 15
25 26 27 28 29 26 25 23 13 5 5 5 2 3 10 15 8 10 10 6 11 5 6 6 2 1 6 3 4 6 5 4 2 7 6 2 4 11 15 16 16 14 13 14 13
27 28 29 29 29 30 26 19 6 4 1 2 1 3 7 4 9 12 6 5 1 7 6 7 5 3 4 5 2 2 1 2 6 10 7 6 5 16 15 15 15 14 12 14 13
30 31 30 30 32 29 24 3 4 4 0 7 5 5 7 12 8 4 4 3 3 6 1 4 5 6 7 6 4 2 4 7 9 8 9 15 6 20 17 14 12 11 10 11 19
30 32 33 30 35 20 7 4 1 2 9 10 12 7 11 4 5 6 1 3 4 4 2 4 4 8 2 2 3 2 5 12 8 6 15 8 5 17 18 19 13 10 9 11 5
31 32 34 30 23 3 13 5 7 13 3 8 5 5 5 10 7 7 8 5 3 5 4 6 7 5 2 6 6 3 4 9 8 5 4 7 3 7 8 4 6 7 11 9 10
30 31 33 33 3 18 9 5 22 4 4 7 4 8 6 6 5 10 10 7 1 10 7 5 5 5 5 7 5 8 3 10 4 5 4 3 3 7 5 9 11 12 14 15 9
31 31 31 25 17 6 5 18 7 3 3 2 4 0 1 9 1 3 8 4 8 6 6 8 3 1 5 9 5 12 7 9 13 6 5 1 5 5 5 6 7 13 17 15 1
31 31 31 10 14 16 12 18 5 5 6 6 3 2 4 1 1 5 4 4 3 3 2 6 1 2 5 3 5 9 7 5 4 4 3 4 4 3 4 8 4 8 10 8 8
32 31 28 19 5 8 18 3 4 3 6 7 3 1 3 0 1 3 3 3 6 4 4 8 7 4 2 7 2 4 6 3 4 5 5 5 5 6 9 4 2 10 9 9 9
35 29 18 20 9 3 3 5 3 3 6 4 5 1 6 5 3 3 3 2 1 5 3 6 7 6 3 7 8 5 8 5 5 4 3 5 3 1 5 4 7 8 10 8 4
30 13 13 11 11 12 5 3 7 6 4 7 8 6 6 4 1 3 7 6 7 8 8 5 7 3 3 2 5 3 3 3 7 3 4 2 1 2 3 3 6 5 10 7 7
17 10 8 5 13 11 4 5 4 5 4 5 3 2 5 3 3 5 7 6 6 10 6 6 5 5 6 1 2 5 4 3 3 4 2 4 3 5 4 7 6 6 7 9 6
5 4 6 11 17 4 4 6 5 7 1 3 1 5 4 4 6 6 7 5 7 7 10 7 4 8 2 3 5 4 1 5 6 4 5 4 6 5 9 11 12 9 10 4 6
5 2 3 20 4 2 3 6 5 4 1 6 4 9 6 4 6 5 10 8 10 9 10 9 6 8 11 6 5 5 8 8 4 4 2 4 5 4 10 10 6 10 5 4 7
2 3 4 4 2 2 4 3 3 4 5 4 4 5 3 5 4 6 4 7 9 9 10 8 1 4 11 8 2 4 2 4 6 4 6 6 4 3 4 5 5 5 7 7 10
1 2 3 1 0 3 2 4 3 4 7 6 6 5 4 5 5 5 3 3 2 10 7 11 5 8 9 9 3 4 2 3 6 4 6 5 7 6 10 9 8 5 4 7 9
1 2 1 2 2 2 3 3 6 4 4 4 4 4 2 5 5 4 2 6 8 4 5 9 9 6 6 6 5 3 5 6 5 7 8 7 10 16 20 15 14 7 6 11 11
2 3 5 2 3 3 2 2 2 3 4 5 5 10 6 7 7 11 2 0 5 5 5 5 6 5 4 3 4 3 4 4 2 4 7 7 0 7 6 9 8 10 9 10 11
6 4 1 3 5 1 2 2 4 9 6 6 9 6 6 3 6 9 9 6 8 3 2 3 7 4 5 2 4 2 3 2 3 2 8 7 8 8 7 14 15 12 10 11 9
Wind_Direction
1 357 354 352 352 348 345 342 340 339 334 329 327 331 328 323 318 310 240 235 157 270 328 330 207 309 224 214 204 121 72 122 196 136 126 139 124 152 84 131 118 181 107 130 135
360 357 353 351 349 348 346 343 342 338 334 330 330 332 331 326 324 282 264 265 256 270 311 11 330 330 341 271 215 111 114 205 207 154 125 109 118 125 113 130 86 89 102 119 138
357 357 356 357 354 352 350 348 343 338 332 332 333 333 331 328 330 256 347 296 241 243 262 322 298 352 337 326 198 125 164 178 228 129 124 117 110 107 124 105 150 145 142 142 143
1 0 358 355 354 351 349 346 340 336 332 332 338 336 333 344 218 323 349 359 273 224 240 334 355 359 310 352 299 124 138 181 168 127 120 126 107 132 133 167 148 154 159 156 162
357 356 354 351 350 348 347 345 339 334 330 329 342 341 348 348 254 327 342 349 12 164 167 173 324 36 4 317 300 136 172 188 97 113 110 121 124 128 120 144 146 148 161 175 181
355 353 351 348 347 346 343 341 336 329 326 327 341 350 2 277 257 18 2 339 331 305 140 164 209 221 278 275 200 299 119 132 112 117 125 118 132 114 163 148 151 160 179 185 194
356 354 350 346 342 340 338 337 332 324 322 323 341 7 311 239 249 289 309 315 305 266 233 237 158 84 326 316 253 106 107 38 143 145 105 114 77 146 161 161 167 181 186 194 206
353 352 350 346 340 334 331 332 328 317 319 320 329 352 251 280 305 285 291 305 309 320 250 274 250 222 168 317 357 97 32 120 229 144 164 76 188 182 164 167 182 188 193 196 207
351 348 346 343 340 331 328 328 320 306 313 309 3 43 270 310 288 281 270 261 321 341 298 283 107 87 26 59 17 28 169 230 209 203 149 204 153 193 179 175 186 196 196 207 213
351 346 342 341 339 329 327 324 302 285 66 20 335 347 284 323 322 307 255 246 331 341 11 42 59 36 42 64 195 151 80 294 212 208 192 190 216 176 190 187 195 195 190 199 215
348 346 340 339 336 326 329 334 13 8 286 213 203 253 289 322 325 301 296 115 85 55 125 353 53 257 243 199 195 256 218 226 231 217 181 208 163 180 190 199 197 192 204 205 203
346 344 339 336 333 326 6 57 109 62 299 241 242 255 262 324 301 293 87 161 130 187 132 12 232 253 259 271 292 3 311 291 276 183 183 153 210 184 185 204 192 177 191 201 152
342 342 338 334 332 9 328 281 340 333 227 293 209 217 202 149 214 259 141 157 160 167 178 179 238 19 358 319 356 319 216 284 252 75 37 114 30 171 209 209 181 166 195 199 177
338 337 337 336 344 329 299 339 329 173 40 278 258 264 157 155 268 216 196 145 242 194 159 236 263 236 284 278 124 293 216 275 208 111 197 121 243 222 179 204 170 172 191 202 173
333 332 332 337 303 297 318 329 350 98 341 219 231 273 207 152 222 199 175 79 179 181 130 231 178 175 240 237 152 254 260 263 263 151 100 5 100 266 152 186 184 186 196 204 175
327 326 326 329 298 283 316 333 116 41 255 328 142 182 130 326 341 332 136 73 150 163 293 219 288 183 233 314 203 264 306 40 38 84 66 215 142 343 220 210 189 189 201 86 97
322 317 312 290 248 306 327 12 46 160 319 334 332 56 46 85 263 13 80 141 156 122 276 332 290 273 187 314 24 105 60 317 2 14 211 309 68 230 289 331 201 169 124 118 133
319 316 299 266 253 300 306 55 182 266 258 309 316 250 164 157 231 155 122 213 144 101 113 183 311 192 170 189 221 230 156 167 190 203 239 328 46 271 300 356 78 115 130 147 134
323 315 287 277 235 205 82 97 208 216 300 350 330 33 351 359 331 139 193 207 206 166 171 156 263 281 170 243 134 275 203 202 107 22 83 278 89 33 331 52 33 77 112 152 184
324 320 274 233 162 144 87 223 230 219 359 12 309 54 352 321 328 150 201 201 213 183 166 223 288 239 278 152 285 168 165 52 354 131 136 299 210 209 200 147 163 186 168 196 177
346 356 329 161 142 57 164 224 258 267 349 324 296 332 238 286 201 203 221 257 201 197 164 148 139 260 172 195 223 338 4 31 115 106 150 166 260 186 179 185 186 194 197 117 114
352 346 10 152 72 70 160 196 238 259 174 254 234 214 229 264 289 237 199 227 182 153 166 193 164 242 235 242 239 199 211 167 136 216 104 143 263 150 181 183 166 193 161 124 76
349 274 141 291 136 228 280 274 248 264 230 255 267 220 243 263 251 205 208 248 249 162 184 172 246 277 306 350 358 221 163 134 119 93 187 145 231 218 142 145 220 206 118 95 85
26 21 330 114 54 112 36 286 264 289 277 222 247 226 267 255 210 284 298 298 306 212 160 135 141 165 215 215 182 312 217 182 121 120 165 215 144 181 172 179 192 208 162 112 98
72 303 66 271 308 343 182 308 303 291 262 314 302 232 4 296 294 234 265 319 329 350 143 142 197 170 228 227 170 219 251 187 181 166 149 205 185 181 184 176 186 169 153 132 130
64 21 349 292 293 258 73 89 266 324 244 270 227 292 247 212 228 279 224 239 249 323 127 299 201 137 203 232 217 231 22 114 83 130 78 100 164 115 118 129 151 170 163 149 151
355 2 98 285 318 64 153 322 285 331 254 246 278 296 274 234 276 236 216 203 233 192 277 139 144 106 213 163 131 16 182 136 117 74 144 147 213 146 157 166 174 169 167 159 160